GEFSSE_prec_meanprecacc_276.txt.gz
Total_Precipitation_Accumulation
0.08 0.11 0.32 0.41 0.46 0.47 0.47 0.45 0.42 0.38 0.37 0.39 0.40 0.39 0.37 0.38 0.39 0.39 0.43 0.47 0.50 0.50 0.54 0.64 0.68 0.70 0.68 0.65 0.67 0.64 0.56 0.51 0.50 0.50 0.55 0.59 0.56 0.47 0.40 0.37 0.33 0.39 0.47
0.05 0.09 0.23 0.31 0.37 0.43 0.47 0.43 0.37 0.31 0.32 0.34 0.33 0.32 0.31 0.31 0.33 0.35 0.42 0.49 0.53 0.52 0.54 0.61 0.68 0.69 0.68 0.65 0.65 0.57 0.43 0.33 0.29 0.27 0.29 0.39 0.46 0.46 0.41 0.38 0.39 0.53 0.57
0.03 0.07 0.16 0.27 0.33 0.38 0.42 0.40 0.34 0.29 0.27 0.29 0.28 0.30 0.29 0.30 0.32 0.35 0.42 0.47 0.52 0.59 0.59 0.58 0.71 0.75 0.76 0.71 0.64 0.54 0.41 0.27 0.18 0.16 0.17 0.29 0.43 0.52 0.47 0.41 0.42 0.48 0.53
0.02 0.04 0.09 0.23 0.31 0.36 0.38 0.36 0.33 0.29 0.26 0.27 0.27 0.29 0.31 0.32 0.33 0.36 0.44 0.49 0.55 0.65 0.67 0.69 0.75 0.73 0.71 0.64 0.58 0.50 0.42 0.28 0.15 0.12 0.12 0.24 0.44 0.57 0.53 0.47 0.42 0.43 0.47
0.02 0.04 0.09 0.21 0.30 0.34 0.35 0.35 0.33 0.30 0.27 0.27 0.29 0.28 0.32 0.33 0.34 0.34 0.38 0.47 0.53 0.63 0.61 0.61 0.68 0.66 0.63 0.60 0.53 0.52 0.51 0.35 0.19 0.09 0.09 0.18 0.37 0.60 0.56 0.52 0.44 0.39 0.42
0.02 0.04 0.10 0.21 0.32 0.33 0.35 0.39 0.39 0.34 0.31 0.30 0.31 0.32 0.33 0.36 0.36 0.36 0.35 0.35 0.40 0.47 0.50 0.54 0.59 0.59 0.56 0.52 0.45 0.48 0.55 0.45 0.21 0.08 0.10 0.16 0.30 0.53 0.55 0.53 0.46 0.42 0.39
0.04 0.06 0.11 0.23 0.34 0.36 0.36 0.40 0.41 0.36 0.34 0.34 0.36 0.38 0.38 0.37 0.38 0.36 0.31 0.30 0.30 0.33 0.37 0.47 0.56 0.57 0.55 0.49 0.44 0.47 0.53 0.42 0.18 0.16 0.18 0.19 0.28 0.42 0.57 0.59 0.52 0.48 0.44
0.05 0.08 0.13 0.28 0.38 0.39 0.36 0.38 0.45 0.41 0.38 0.36 0.38 0.42 0.44 0.45 0.44 0.41 0.35 0.30 0.27 0.27 0.30 0.37 0.47 0.62 0.59 0.48 0.46 0.49 0.47 0.28 0.13 0.13 0.18 0.22 0.28 0.45 0.78 0.85 0.65 0.53 0.50
0.09 0.11 0.16 0.27 0.36 0.40 0.39 0.39 0.44 0.43 0.42 0.42 0.43 0.44 0.44 0.45 0.45 0.46 0.43 0.37 0.36 0.33 0.32 0.34 0.40 0.58 0.59 0.51 0.50 0.52 0.38 0.18 0.10 0.17 0.16 0.25 0.25 0.50 0.88 0.98 0.86 0.67 0.56
0.12 0.16 0.21 0.27 0.33 0.39 0.40 0.39 0.41 0.41 0.43 0.44 0.44 0.40 0.36 0.37 0.42 0.41 0.38 0.35 0.36 0.38 0.37 0.33 0.34 0.45 0.50 0.49 0.56 0.49 0.25 0.13 0.09 0.12 0.22 0.22 0.22 0.51 0.94 1.05 0.97 0.81 0.67
0.17 0.20 0.25 0.31 0.34 0.38 0.40 0.37 0.39 0.42 0.41 0.41 0.39 0.35 0.34 0.34 0.36 0.33 0.28 0.28 0.34 0.38 0.38 0.37 0.37 0.40 0.43 0.41 0.46 0.36 0.18 0.11 0.09 0.14 0.22 0.20 0.23 0.49 0.93 1.09 1.02 0.92 0.83
0.19 0.23 0.27 0.32 0.35 0.39 0.38 0.41 0.43 0.40 0.37 0.33 0.29 0.30 0.34 0.38 0.40 0.37 0.32 0.29 0.34 0.37 0.40 0.43 0.45 0.42 0.39 0.35 0.45 0.36 0.19 0.14 0.13 0.10 0.13 0.13 0.27 0.52 0.80 1.00 1.09 1.01 0.95
0.18 0.24 0.32 0.38 0.41 0.44 0.42 0.41 0.43 0.43 0.40 0.39 0.35 0.34 0.39 0.44 0.44 0.43 0.41 0.39 0.36 0.34 0.37 0.40 0.45 0.40 0.42 0.54 0.68 0.53 0.36 0.28 0.18 0.11 0.08 0.10 0.23 0.44 0.67 0.85 1.05 1.15 1.14
0.20 0.22 0.29 0.37 0.45 0.50 0.48 0.45 0.41 0.38 0.38 0.39 0.41 0.41 0.42 0.41 0.38 0.37 0.34 0.34 0.36 0.36 0.37 0.39 0.40 0.42 0.42 0.47 0.51 0.46 0.36 0.32 0.22 0.17 0.12 0.11 0.15 0.26 0.44 0.64 0.86 1.13 1.23
0.20 0.23 0.27 0.31 0.39 0.47 0.51 0.49 0.45 0.41 0.38 0.36 0.36 0.37 0.39 0.39 0.36 0.34 0.32 0.31 0.31 0.31 0.33 0.34 0.32 0.34 0.39 0.41 0.38 0.35 0.33 0.28 0.24 0.22 0.18 0.16 0.14 0.18 0.30 0.50 0.68 0.93 1.20
0.19 0.23 0.27 0.31 0.34 0.42 0.42 0.42 0.45 0.46 0.45 0.43 0.39 0.34 0.33 0.33 0.32 0.30 0.28 0.27 0.27 0.29 0.29 0.30 0.31 0.33 0.34 0.36 0.33 0.30 0.28 0.24 0.22 0.23 0.22 0.21 0.19 0.18 0.25 0.39 0.55 0.73 1.04
0.19 0.24 0.28 0.33 0.34 0.39 0.42 0.40 0.40 0.44 0.47 0.46 0.40 0.37 0.34 0.30 0.29 0.29 0.29 0.27 0.25 0.28 0.34 0.41 0.42 0.43 0.44 0.42 0.38 0.37 0.34 0.30 0.26 0.28 0.29 0.26 0.26 0.24 0.26 0.39 0.51 0.62 0.83
0.19 0.25 0.31 0.33 0.36 0.39 0.46 0.49 0.43 0.44 0.46 0.42 0.40 0.41 0.39 0.35 0.33 0.32 0.30 0.30 0.26 0.28 0.34 0.43 0.51 0.54 0.50 0.48 0.46 0.46 0.46 0.43 0.36 0.35 0.36 0.32 0.31 0.29 0.27 0.33 0.47 0.58 0.75
0.18 0.22 0.30 0.34 0.37 0.41 0.51 0.58 0.49 0.47 0.50 0.47 0.44 0.45 0.44 0.42 0.40 0.37 0.36 0.33 0.30 0.32 0.35 0.39 0.41 0.46 0.51 0.56 0.58 0.57 0.60 0.60 0.53 0.45 0.39 0.35 0.33 0.30 0.30 0.33 0.38 0.45 0.61
0.20 0.24 0.29 0.36 0.45 0.51 0.59 0.69 0.65 0.52 0.50 0.52 0.49 0.44 0.45 0.47 0.45 0.42 0.41 0.38 0.36 0.35 0.37 0.39 0.42 0.43 0.44 0.51 0.57 0.55 0.57 0.58 0.57 0.52 0.46 0.45 0.42 0.35 0.32 0.32 0.36 0.36 0.42
0.19 0.23 0.27 0.32 0.45 0.55 0.59 0.65 0.66 0.49 0.45 0.49 0.47 0.41 0.42 0.44 0.44 0.43 0.42 0.40 0.38 0.36 0.36 0.39 0.40 0.40 0.39 0.42 0.48 0.44 0.40 0.42 0.44 0.43 0.41 0.43 0.45 0.46 0.45 0.41 0.38 0.38 0.39
0.16 0.19 0.23 0.27 0.35 0.45 0.48 0.57 0.67 0.60 0.52 0.53 0.49 0.45 0.44 0.44 0.42 0.41 0.40 0.40 0.40 0.39 0.36 0.35 0.38 0.41 0.38 0.37 0.45 0.49 0.42 0.37 0.34 0.31 0.32 0.35 0.40 0.46 0.49 0.50 0.49 0.46 0.42
0.16 0.17 0.20 0.24 0.30 0.40 0.49 0.59 0.71 0.81 0.68 0.61 0.55 0.50 0.49 0.47 0.46 0.45 0.43 0.43 0.42 0.44 0.41 0.35 0.35 0.41 0.42 0.40 0.43 0.59 0.66 0.48 0.34 0.26 0.27 0.29 0.32 0.34 0.35 0.39 0.43 0.47 0.49
0.19 0.19 0.21 0.26 0.29 0.33 0.43 0.54 0.59 0.67 0.64 0.49 0.43 0.44 0.45 0.44 0.44 0.43 0.43 0.43 0.44 0.45 0.44 0.44 0.41 0.41 0.44 0.44 0.42 0.44 0.51 0.53 0.59 0.42 0.21 0.19 0.23 0.26 0.28 0.29 0.31 0.34 0.40
0.22 0.22 0.22 0.29 0.32 0.32 0.35 0.43 0.52 0.60 0.61 0.59 0.50 0.46 0.47 0.47 0.44 0.43 0.41 0.41 0.42 0.43 0.43 0.45 0.46 0.48 0.48 0.48 0.49 0.46 0.42 0.40 0.47 0.64 0.39 0.19 0.19 0.19 0.23 0.27 0.32 0.35 0.38
0.25 0.26 0.28 0.29 0.31 0.32 0.36 0.40 0.46 0.53 0.59 0.66 0.62 0.54 0.50 0.51 0.51 0.47 0.43 0.42 0.42 0.41 0.41 0.42 0.44 0.46 0.48 0.49 0.50 0.50 0.54 0.55 0.50 0.59 0.55 0.32 0.25 0.20 0.20 0.23 0.28 0.34 0.42

GEFSSE_prec_meanprecacc_282.txt.gz
Total_Precipitation_Accumulation
0.08 0.11 0.32 0.41 0.46 0.49 0.49 0.47 0.43 0.39 0.38 0.40 0.41 0.40 0.38 0.38 0.40 0.41 0.45 0.48 0.52 0.52 0.56 0.65 0.69 0.71 0.70 0.67 0.68 0.65 0.57 0.52 0.51 0.50 0.56 0.61 0.57 0.48 0.41 0.38 0.34 0.40 0.49
0.06 0.09 0.24 0.32 0.38 0.45 0.50 0.45 0.39 0.32 0.33 0.36 0.34 0.34 0.32 0.32 0.34 0.37 0.43 0.51 0.55 0.54 0.56 0.62 0.69 0.71 0.71 0.67 0.67 0.59 0.44 0.34 0.29 0.27 0.30 0.40 0.47 0.48 0.42 0.39 0.40 0.55 0.58
0.04 0.07 0.16 0.28 0.34 0.40 0.45 0.43 0.36 0.31 0.29 0.32 0.30 0.32 0.30 0.31 0.34 0.36 0.44 0.49 0.53 0.61 0.61 0.60 0.72 0.77 0.79 0.72 0.66 0.55 0.42 0.28 0.19 0.17 0.18 0.30 0.44 0.53 0.49 0.43 0.44 0.50 0.55
0.03 0.05 0.10 0.24 0.32 0.37 0.41 0.38 0.34 0.30 0.28 0.29 0.29 0.30 0.32 0.34 0.35 0.38 0.46 0.52 0.57 0.67 0.69 0.71 0.78 0.76 0.74 0.66 0.60 0.50 0.43 0.28 0.16 0.13 0.13 0.26 0.46 0.59 0.55 0.49 0.44 0.45 0.50
0.03 0.06 0.11 0.22 0.32 0.37 0.38 0.37 0.34 0.31 0.28 0.29 0.30 0.30 0.34 0.36 0.36 0.37 0.41 0.49 0.55 0.65 0.65 0.65 0.71 0.68 0.66 0.63 0.54 0.53 0.52 0.36 0.19 0.10 0.10 0.20 0.39 0.61 0.57 0.53 0.45 0.41 0.43
0.04 0.07 0.12 0.23 0.33 0.36 0.38 0.42 0.41 0.36 0.33 0.32 0.33 0.34 0.35 0.38 0.38 0.39 0.38 0.37 0.41 0.49 0.52 0.56 0.61 0.61 0.58 0.53 0.46 0.49 0.55 0.46 0.22 0.09 0.12 0.17 0.31 0.55 0.56 0.53 0.47 0.43 0.40
0.06 0.10 0.14 0.26 0.37 0.39 0.39 0.43 0.44 0.39 0.36 0.36 0.38 0.40 0.40 0.39 0.40 0.40 0.33 0.32 0.32 0.35 0.39 0.49 0.57 0.60 0.58 0.50 0.45 0.47 0.53 0.42 0.19 0.17 0.19 0.20 0.28 0.43 0.58 0.60 0.52 0.49 0.44
0.07 0.10 0.16 0.31 0.42 0.43 0.42 0.43 0.49 0.45 0.42 0.38 0.40 0.43 0.46 0.47 0.46 0.44 0.37 0.32 0.30 0.29 0.33 0.38 0.49 0.63 0.61 0.49 0.46 0.50 0.47 0.28 0.14 0.14 0.19 0.23 0.28 0.46 0.79 0.86 0.66 0.54 0.50
0.10 0.14 0.19 0.30 0.40 0.46 0.45 0.46 0.50 0.49 0.48 0.46 0.45 0.45 0.45 0.47 0.48 0.48 0.45 0.40 0.38 0.36 0.36 0.36 0.42 0.59 0.60 0.52 0.51 0.52 0.38 0.18 0.11 0.17 0.17 0.25 0.26 0.51 0.90 0.99 0.87 0.68 0.57
0.15 0.19 0.25 0.32 0.40 0.46 0.46 0.46 0.49 0.48 0.50 0.49 0.47 0.42 0.37 0.39 0.45 0.44 0.40 0.38 0.39 0.42 0.41 0.36 0.36 0.47 0.52 0.50 0.57 0.50 0.25 0.13 0.09 0.13 0.23 0.23 0.22 0.52 0.96 1.06 0.99 0.82 0.68
0.21 0.26 0.32 0.38 0.41 0.44 0.46 0.43 0.48 0.50 0.48 0.47 0.43 0.37 0.36 0.37 0.39 0.36 0.30 0.30 0.37 0.42 0.41 0.40 0.38 0.42 0.45 0.42 0.47 0.36 0.18 0.11 0.10 0.14 0.22 0.21 0.24 0.51 0.95 1.11 1.03 0.94 0.84
0.24 0.33 0.35 0.39 0.42 0.45 0.44 0.47 0.51 0.47 0.44 0.40 0.33 0.33 0.37 0.41 0.43 0.39 0.33 0.30 0.36 0.39 0.42 0.46 0.47 0.44 0.41 0.36 0.46 0.36 0.20 0.14 0.14 0.10 0.13 0.14 0.28 0.53 0.81 1.02 1.10 1.02 0.97
0.22 0.36 0.44 0.44 0.48 0.51 0.49 0.47 0.51 0.51 0.48 0.45 0.40 0.37 0.43 0.49 0.48 0.46 0.43 0.40 0.38 0.36 0.38 0.42 0.47 0.43 0.44 0.55 0.70 0.54 0.37 0.29 0.19 0.11 0.08 0.10 0.23 0.44 0.68 0.85 1.06 1.17 1.16
0.24 0.33 0.44 0.46 0.52 0.58 0.57 0.53 0.47 0.44 0.44 0.45 0.48 0.46 0.47 0.46 0.42 0.40 0.36 0.35 0.37 0.37 0.39 0.40 0.41 0.44 0.45 0.49 0.53 0.47 0.37 0.32 0.23 0.18 0.12 0.11 0.15 0.27 0.44 0.64 0.87 1.14 1.24
0.24 0.30 0.39 0.43 0.49 0.56 0.61 0.59 0.52 0.47 0.44 0.42 0.46 0.49 0.47 0.44 0.41 0.37 0.34 0.34 0.32 0.32 0.34 0.35 0.33 0.34 0.40 0.44 0.42 0.38 0.35 0.30 0.24 0.22 0.19 0.16 0.14 0.18 0.30 0.50 0.68 0.94 1.22
0.23 0.28 0.34 0.39 0.42 0.50 0.52 0.54 0.54 0.53 0.52 0.49 0.46 0.48 0.48 0.41 0.38 0.35 0.32 0.29 0.29 0.30 0.30 0.31 0.32 0.34 0.35 0.37 0.36 0.33 0.31 0.26 0.24 0.24 0.23 0.21 0.19 0.18 0.25 0.39 0.55 0.73 1.04
0.22 0.29 0.34 0.38 0.39 0.45 0.49 0.52 0.53 0.52 0.54 0.51 0.44 0.45 0.49 0.47 0.39 0.36 0.35 0.32 0.29 0.30 0.35 0.41 0.43 0.44 0.44 0.43 0.40 0.40 0.37 0.32 0.27 0.29 0.29 0.27 0.26 0.24 0.26 0.39 0.51 0.62 0.83
0.22 0.29 0.36 0.39 0.42 0.44 0.50 0.56 0.59 0.56 0.55 0.48 0.44 0.46 0.48 0.50 0.49 0.44 0.40 0.37 0.31 0.31 0.37 0.44 0.52 0.55 0.50 0.49 0.47 0.48 0.49 0.46 0.38 0.36 0.37 0.33 0.32 0.29 0.27 0.33 0.47 0.58 0.75
0.21 0.27 0.35 0.39 0.41 0.46 0.56 0.64 0.62 0.64 0.62 0.56 0.51 0.50 0.50 0.50 0.50 0.49 0.48 0.44 0.38 0.36 0.38 0.40 0.42 0.47 0.51 0.57 0.59 0.58 0.61 0.63 0.57 0.48 0.41 0.36 0.34 0.31 0.31 0.33 0.38 0.46 0.62
0.23 0.28 0.33 0.42 0.51 0.56 0.65 0.75 0.75 0.68 0.66 0.63 0.58 0.51 0.50 0.53 0.51 0.49 0.49 0.46 0.43 0.41 0.40 0.42 0.43 0.44 0.45 0.51 0.57 0.55 0.57 0.58 0.60 0.57 0.50 0.48 0.44 0.36 0.33 0.33 0.36 0.36 0.42
0.23 0.27 0.31 0.39 0.54 0.63 0.66 0.71 0.73 0.61 0.62 0.64 0.58 0.49 0.48 0.49 0.50 0.49 0.48 0.47 0.44 0.41 0.39 0.41 0.42 0.41 0.40 0.42 0.48 0.44 0.41 0.42 0.45 0.45 0.44 0.47 0.49 0.49 0.47 0.42 0.39 0.38 0.39
0.20 0.23 0.28 0.33 0.44 0.54 0.56 0.64 0.74 0.70 0.66 0.71 0.62 0.54 0.50 0.47 0.46 0.46 0.45 0.45 0.46 0.45 0.40 0.38 0.41 0.42 0.39 0.38 0.46 0.49 0.42 0.37 0.34 0.32 0.33 0.38 0.43 0.50 0.52 0.52 0.51 0.47 0.43
0.20 0.20 0.25 0.30 0.37 0.48 0.59 0.68 0.78 0.92 0.83 0.78 0.71 0.61 0.56 0.50 0.48 0.48 0.46 0.46 0.46 0.48 0.45 0.39 0.38 0.43 0.44 0.41 0.43 0.60 0.67 0.48 0.34 0.26 0.27 0.30 0.34 0.36 0.38 0.41 0.45 0.49 0.50
0.21 0.22 0.25 0.31 0.33 0.39 0.53 0.64 0.67 0.75 0.78 0.64 0.58 0.56 0.55 0.52 0.48 0.45 0.45 0.45 0.46 0.48 0.47 0.48 0.45 0.44 0.46 0.45 0.44 0.46 0.52 0.54 0.60 0.43 0.21 0.20 0.23 0.26 0.29 0.31 0.33 0.36 0.41
0.23 0.24 0.26 0.33 0.37 0.37 0.44 0.54 0.62 0.68 0.72 0.73 0.65 0.58 0.58 0.57 0.50 0.46 0.44 0.43 0.45 0.46 0.46 0.48 0.50 0.51 0.51 0.50 0.51 0.48 0.45 0.42 0.49 0.66 0.41 0.20 0.19 0.20 0.23 0.28 0.32 0.36 0.39
0.27 0.29 0.30 0.33 0.36 0.37 0.43 0.51 0.55 0.61 0.68 0.77 0.76 0.67 0.61 0.61 0.59 0.53 0.47 0.45 0.45 0.44 0.43 0.45 0.47 0.49 0.51 0.51 0.52 0.52 0.56 0.58 0.52 0.61 0.58 0.33 0.25 0.20 0.20 0.23 0.28 0.35 0.42

GEFSSE_prec_meanprecacc_288.txt.gz
Total_Precipitation_Accumulation
0.09 0.12 0.34 0.42 0.47 0.50 0.50 0.48 0.44 0.39 0.39 0.41 0.42 0.42 0.39 0.40 0.41 0.43 0.46 0.50 0.54 0.54 0.58 0.67 0.72 0.74 0.72 0.69 0.70 0.67 0.58 0.53 0.52 0.51 0.58 0.63 0.59 0.51 0.43 0.39 0.34 0.41 0.51
0.06 0.10 0.25 0.33 0.39 0.45 0.51 0.47 0.40 0.33 0.34 0.37 0.36 0.35 0.33 0.34 0.36 0.39 0.45 0.52 0.57 0.55 0.58 0.64 0.71 0.73 0.73 0.70 0.69 0.60 0.45 0.35 0.30 0.28 0.31 0.41 0.50 0.50 0.44 0.41 0.42 0.57 0.61
0.04 0.08 0.18 0.29 0.35 0.41 0.47 0.44 0.37 0.32 0.30 0.33 0.32 0.33 0.32 0.33 0.36 0.39 0.46 0.50 0.55 0.62 0.62 0.61 0.75 0.79 0.80 0.74 0.67 0.56 0.43 0.28 0.20 0.18 0.18 0.30 0.46 0.56 0.51 0.45 0.46 0.53 0.57
0.03 0.06 0.11 0.25 0.34 0.39 0.43 0.40 0.36 0.32 0.29 0.30 0.30 0.32 0.34 0.36 0.37 0.40 0.47 0.53 0.59 0.69 0.71 0.74 0.80 0.77 0.75 0.68 0.61 0.52 0.44 0.30 0.17 0.14 0.13 0.26 0.46 0.61 0.57 0.51 0.45 0.47 0.51
0.04 0.07 0.13 0.25 0.34 0.38 0.40 0.39 0.37 0.33 0.30 0.30 0.31 0.31 0.35 0.38 0.38 0.39 0.42 0.51 0.58 0.68 0.68 0.68 0.74 0.70 0.67 0.65 0.56 0.54 0.53 0.37 0.20 0.10 0.10 0.20 0.39 0.63 0.59 0.54 0.46 0.41 0.44
0.06 0.09 0.16 0.26 0.36 0.39 0.40 0.44 0.44 0.38 0.34 0.33 0.34 0.35 0.37 0.40 0.40 0.41 0.40 0.40 0.45 0.51 0.55 0.59 0.65 0.64 0.59 0.55 0.47 0.50 0.56 0.47 0.22 0.10 0.12 0.17 0.32 0.55 0.57 0.54 0.48 0.44 0.41
0.08 0.11 0.17 0.29 0.40 0.42 0.42 0.46 0.47 0.41 0.38 0.38 0.39 0.42 0.42 0.41 0.42 0.42 0.35 0.34 0.35 0.37 0.41 0.51 0.61 0.63 0.60 0.52 0.46 0.49 0.54 0.43 0.19 0.18 0.20 0.20 0.29 0.44 0.59 0.61 0.54 0.51 0.46
0.09 0.13 0.20 0.35 0.45 0.46 0.45 0.46 0.52 0.48 0.44 0.41 0.42 0.45 0.48 0.48 0.48 0.45 0.39 0.34 0.32 0.31 0.35 0.41 0.52 0.67 0.64 0.51 0.47 0.51 0.48 0.28 0.14 0.14 0.19 0.23 0.29 0.47 0.81 0.88 0.68 0.56 0.52
0.12 0.17 0.23 0.35 0.44 0.49 0.49 0.50 0.53 0.52 0.52 0.49 0.48 0.48 0.47 0.48 0.49 0.50 0.47 0.43 0.40 0.38 0.38 0.38 0.45 0.62 0.63 0.54 0.52 0.53 0.38 0.19 0.11 0.18 0.17 0.26 0.26 0.52 0.91 1.01 0.88 0.70 0.58
0.16 0.21 0.29 0.36 0.45 0.50 0.49 0.49 0.53 0.52 0.55 0.52 0.50 0.44 0.39 0.41 0.47 0.46 0.43 0.41 0.41 0.44 0.43 0.38 0.38 0.48 0.54 0.52 0.58 0.50 0.25 0.13 0.09 0.13 0.23 0.23 0.23 0.53 0.97 1.08 1.01 0.83 0.69
0.22 0.28 0.36 0.43 0.47 0.49 0.50 0.47 0.53 0.55 0.54 0.52 0.46 0.40 0.38 0.39 0.41 0.39 0.33 0.32 0.39 0.45 0.44 0.42 0.40 0.43 0.46 0.43 0.47 0.37 0.19 0.11 0.10 0.14 0.22 0.21 0.25 0.52 0.96 1.12 1.05 0.96 0.86
0.25 0.34 0.40 0.50 0.52 0.50 0.47 0.51 0.56 0.52 0.49 0.44 0.36 0.36 0.40 0.43 0.45 0.41 0.35 0.32 0.39 0.43 0.46 0.48 0.49 0.46 0.42 0.37 0.47 0.37 0.20 0.14 0.14 0.10 0.13 0.14 0.28 0.54 0.82 1.02 1.11 1.03 0.98
0.24 0.39 0.49 0.55 0.61 0.58 0.52 0.51 0.55 0.56 0.53 0.49 0.43 0.40 0.46 0.51 0.51 0.48 0.45 0.44 0.42 0.40 0.43 0.45 0.49 0.44 0.45 0.55 0.70 0.55 0.37 0.29 0.19 0.11 0.08 0.11 0.23 0.45 0.68 0.86 1.06 1.18 1.16
0.26 0.36 0.50 0.55 0.62 0.66 0.63 0.58 0.51 0.49 0.49 0.49 0.51 0.49 0.50 0.49 0.46 0.43 0.39 0.38 0.41 0.41 0.42 0.42 0.43 0.45 0.45 0.50 0.54 0.47 0.38 0.33 0.23 0.18 0.12 0.11 0.16 0.27 0.44 0.64 0.87 1.15 1.25
0.25 0.32 0.45 0.51 0.56 0.63 0.68 0.65 0.57 0.51 0.48 0.46 0.49 0.52 0.49 0.47 0.44 0.41 0.37 0.37 0.35 0.35 0.37 0.37 0.35 0.35 0.41 0.44 0.42 0.38 0.35 0.30 0.25 0.23 0.20 0.16 0.15 0.19 0.31 0.51 0.69 0.94 1.22
0.24 0.30 0.38 0.46 0.50 0.58 0.59 0.61 0.60 0.58 0.57 0.54 0.50 0.52 0.54 0.47 0.43 0.40 0.36 0.33 0.32 0.33 0.32 0.33 0.34 0.35 0.35 0.38 0.36 0.33 0.31 0.26 0.24 0.24 0.23 0.22 0.20 0.19 0.26 0.40 0.56 0.73 1.05
0.24 0.32 0.38 0.43 0.46 0.51 0.54 0.57 0.59 0.58 0.59 0.56 0.49 0.49 0.55 0.55 0.47 0.43 0.40 0.35 0.30 0.31 0.37 0.44 0.45 0.45 0.44 0.44 0.40 0.40 0.37 0.32 0.27 0.29 0.30 0.28 0.27 0.25 0.27 0.41 0.52 0.63 0.84
0.23 0.31 0.38 0.43 0.48 0.51 0.56 0.61 0.64 0.62 0.62 0.55 0.50 0.51 0.53 0.57 0.59 0.56 0.52 0.44 0.35 0.33 0.38 0.46 0.54 0.56 0.51 0.49 0.47 0.49 0.50 0.47 0.38 0.36 0.38 0.34 0.33 0.30 0.28 0.34 0.48 0.59 0.76
0.23 0.29 0.38 0.43 0.45 0.52 0.63 0.70 0.68 0.72 0.71 0.64 0.58 0.56 0.55 0.56 0.58 0.61 0.63 0.60 0.49 0.42 0.41 0.43 0.44 0.48 0.52 0.57 0.59 0.58 0.61 0.63 0.57 0.49 0.41 0.36 0.34 0.32 0.32 0.34 0.40 0.46 0.63
0.27 0.30 0.37 0.48 0.56 0.62 0.72 0.82 0.80 0.75 0.76 0.75 0.67 0.57 0.56 0.60 0.58 0.58 0.62 0.63 0.60 0.54 0.49 0.48 0.48 0.46 0.46 0.52 0.58 0.56 0.57 0.58 0.60 0.57 0.50 0.48 0.44 0.37 0.34 0.34 0.38 0.38 0.43
0.27 0.31 0.36 0.45 0.61 0.69 0.72 0.78 0.79 0.67 0.70 0.76 0.70 0.57 0.55 0.55 0.56 0.56 0.56 0.57 0.57 0.53 0.49 0.50 0.50 0.47 0.43 0.44 0.49 0.45 0.41 0.42 0.45 0.45 0.44 0.47 0.49 0.50 0.48 0.44 0.41 0.41 0.41
0.24 0.28 0.32 0.38 0.51 0.61 0.62 0.70 0.81 0.76 0.71 0.80 0.78 0.66 0.59 0.54 0.52 0.52 0.51 0.52 0.55 0.54 0.47 0.44 0.47 0.48 0.43 0.41 0.48 0.51 0.44 0.38 0.34 0.32 0.33 0.38 0.44 0.50 0.53 0.54 0.53 0.49 0.46
0.23 0.25 0.28 0.33 0.42 0.55 0.67 0.76 0.86 1.01 0.90 0.86 0.86 0.77 0.68 0.58 0.54 0.53 0.51 0.51 0.51 0.54 0.50 0.42 0.41 0.47 0.48 0.45 0.47 0.63 0.69 0.50 0.34 0.26 0.27 0.31 0.34 0.37 0.39 0.43 0.47 0.51 0.52
0.24 0.26 0.29 0.35 0.39 0.47 0.63 0.74 0.75 0.82 0.84 0.69 0.67 0.73 0.72 0.65 0.56 0.52 0.50 0.51 0.51 0.52 0.50 0.50 0.47 0.46 0.50 0.50 0.48 0.49 0.54 0.55 0.62 0.44 0.21 0.20 0.24 0.28 0.30 0.32 0.34 0.38 0.43
0.26 0.28 0.30 0.38 0.42 0.44 0.53 0.65 0.72 0.75 0.78 0.79 0.71 0.69 0.74 0.72 0.61 0.56 0.52 0.51 0.52 0.51 0.49 0.50 0.51 0.53 0.53 0.53 0.55 0.52 0.48 0.45 0.52 0.68 0.42 0.21 0.20 0.21 0.25 0.30 0.34 0.39 0.42
0.29 0.32 0.34 0.37 0.40 0.43 0.50 0.61 0.67 0.70 0.76 0.84 0.81 0.71 0.70 0.75 0.74 0.65 0.57 0.55 0.54 0.51 0.47 0.47 0.49 0.51 0.53 0.54 0.55 0.57 0.60 0.62 0.56 0.65 0.61 0.36 0.27 0.21 0.22 0.25 0.30 0.37 0.45

GEFSSE_prec_meanprecacc_294.txt.gz
Total_Precipitation_Accumulation
0.10 0.14 0.37 0.46 0.50 0.53 0.53 0.50 0.45 0.40 0.40 0.43 0.44 0.43 0.41 0.42 0.44 0.45 0.49 0.52 0.56 0.57 0.61 0.70 0.75 0.76 0.74 0.72 0.72 0.69 0.61 0.55 0.53 0.53 0.60 0.66 0.62 0.54 0.46 0.40 0.35 0.42 0.54
0.07 0.12 0.29 0.37 0.42 0.49 0.56 0.51 0.42 0.35 0.35 0.39 0.38 0.36 0.35 0.36 0.39 0.42 0.48 0.55 0.59 0.58 0.61 0.67 0.73 0.76 0.75 0.72 0.72 0.62 0.47 0.36 0.31 0.28 0.32 0.43 0.53 0.54 0.47 0.42 0.43 0.58 0.63
0.05 0.09 0.21 0.34 0.38 0.45 0.52 0.49 0.41 0.35 0.32 0.35 0.33 0.34 0.33 0.35 0.38 0.41 0.48 0.52 0.57 0.64 0.64 0.63 0.76 0.81 0.82 0.76 0.69 0.57 0.44 0.30 0.20 0.18 0.19 0.30 0.47 0.58 0.53 0.46 0.47 0.54 0.58
0.04 0.07 0.14 0.30 0.37 0.43 0.47 0.45 0.41 0.36 0.32 0.32 0.31 0.33 0.35 0.37 0.39 0.42 0.49 0.55 0.60 0.71 0.73 0.76 0.82 0.79 0.78 0.70 0.62 0.53 0.45 0.31 0.18 0.15 0.14 0.27 0.47 0.62 0.58 0.52 0.46 0.48 0.52
0.05 0.09 0.17 0.28 0.37 0.42 0.44 0.44 0.42 0.36 0.32 0.32 0.33 0.33 0.37 0.40 0.40 0.41 0.44 0.53 0.60 0.70 0.71 0.71 0.76 0.72 0.68 0.66 0.57 0.55 0.54 0.38 0.21 0.11 0.10 0.20 0.39 0.64 0.60 0.55 0.47 0.43 0.46
0.07 0.11 0.20 0.30 0.39 0.43 0.44 0.49 0.49 0.42 0.37 0.35 0.36 0.37 0.39 0.43 0.44 0.44 0.42 0.42 0.48 0.54 0.58 0.61 0.67 0.66 0.61 0.56 0.49 0.51 0.57 0.47 0.22 0.10 0.12 0.17 0.32 0.56 0.58 0.55 0.49 0.46 0.43
0.10 0.14 0.21 0.35 0.45 0.47 0.46 0.50 0.52 0.45 0.41 0.39 0.41 0.44 0.44 0.45 0.47 0.44 0.37 0.37 0.38 0.40 0.44 0.53 0.63 0.65 0.62 0.54 0.48 0.49 0.54 0.43 0.20 0.18 0.20 0.21 0.29 0.45 0.61 0.63 0.56 0.52 0.47
0.11 0.16 0.25 0.41 0.51 0.52 0.51 0.50 0.57 0.51 0.47 0.43 0.44 0.47 0.50 0.50 0.51 0.48 0.41 0.37 0.34 0.34 0.38 0.44 0.54 0.69 0.66 0.53 0.49 0.51 0.48 0.28 0.14 0.15 0.19 0.23 0.29 0.48 0.82 0.89 0.69 0.57 0.53
0.14 0.19 0.26 0.40 0.50 0.55 0.55 0.56 0.60 0.56 0.54 0.51 0.50 0.50 0.48 0.50 0.51 0.52 0.49 0.44 0.42 0.40 0.41 0.42 0.48 0.65 0.67 0.57 0.53 0.53 0.38 0.19 0.11 0.18 0.17 0.26 0.27 0.54 0.93 1.02 0.90 0.71 0.59
0.17 0.23 0.32 0.41 0.51 0.56 0.55 0.55 0.59 0.58 0.58 0.55 0.52 0.46 0.40 0.42 0.48 0.48 0.44 0.42 0.43 0.46 0.46 0.41 0.42 0.52 0.58 0.56 0.59 0.51 0.26 0.13 0.09 0.14 0.24 0.24 0.24 0.55 0.99 1.10 1.02 0.84 0.70
0.24 0.31 0.40 0.50 0.54 0.55 0.55 0.52 0.60 0.62 0.60 0.55 0.47 0.41 0.39 0.40 0.42 0.40 0.34 0.34 0.41 0.47 0.47 0.45 0.45 0.48 0.51 0.46 0.49 0.39 0.20 0.12 0.11 0.15 0.23 0.22 0.26 0.53 0.97 1.13 1.06 0.97 0.87
0.27 0.37 0.44 0.57 0.63 0.58 0.52 0.55 0.62 0.61 0.57 0.48 0.38 0.37 0.41 0.44 0.46 0.42 0.36 0.34 0.40 0.44 0.49 0.52 0.54 0.52 0.47 0.39 0.47 0.38 0.21 0.15 0.15 0.10 0.14 0.14 0.29 0.55 0.83 1.03 1.12 1.04 0.99
0.26 0.41 0.52 0.62 0.73 0.69 0.60 0.56 0.60 0.62 0.61 0.55 0.46 0.42 0.47 0.52 0.52 0.50 0.47 0.45 0.43 0.43 0.46 0.49 0.55 0.50 0.50 0.58 0.71 0.55 0.38 0.30 0.19 0.12 0.08 0.11 0.24 0.45 0.69 0.87 1.07 1.18 1.17
0.28 0.38 0.54 0.60 0.71 0.76 0.72 0.66 0.57 0.54 0.55 0.55 0.55 0.52 0.52 0.51 0.47 0.45 0.41 0.39 0.42 0.42 0.44 0.46 0.48 0.51 0.51 0.53 0.55 0.48 0.38 0.33 0.23 0.18 0.12 0.11 0.16 0.28 0.45 0.65 0.88 1.16 1.26
0.27 0.33 0.47 0.53 0.60 0.69 0.76 0.74 0.66 0.59 0.54 0.51 0.53 0.56 0.53 0.49 0.46 0.42 0.39 0.39 0.37 0.38 0.39 0.41 0.39 0.41 0.46 0.48 0.44 0.39 0.35 0.30 0.25 0.23 0.20 0.17 0.15 0.19 0.31 0.52 0.70 0.95 1.23
0.25 0.32 0.40 0.48 0.52 0.61 0.63 0.66 0.68 0.67 0.65 0.61 0.54 0.56 0.57 0.50 0.45 0.42 0.38 0.34 0.34 0.36 0.35 0.37 0.38 0.40 0.41 0.42 0.40 0.37 0.32 0.27 0.24 0.24 0.23 0.22 0.20 0.19 0.26 0.41 0.57 0.75 1.06
0.25 0.33 0.39 0.45 0.49 0.54 0.58 0.61 0.64 0.65 0.67 0.64 0.55 0.52 0.59 0.59 0.50 0.46 0.43 0.37 0.33 0.34 0.40 0.48 0.49 0.49 0.50 0.49 0.46 0.46 0.41 0.34 0.28 0.29 0.30 0.28 0.27 0.25 0.27 0.41 0.53 0.65 0.86
0.25 0.32 0.40 0.44 0.50 0.53 0.59 0.64 0.68 0.68 0.69 0.63 0.58 0.55 0.56 0.61 0.63 0.60 0.56 0.48 0.39 0.37 0.42 0.49 0.57 0.60 0.55 0.55 0.53 0.53 0.54 0.50 0.40 0.37 0.38 0.34 0.33 0.31 0.29 0.35 0.49 0.61 0.78
0.25 0.31 0.39 0.44 0.47 0.54 0.66 0.74 0.73 0.78 0.79 0.72 0.67 0.63 0.59 0.60 0.62 0.65 0.68 0.65 0.55 0.48 0.47 0.48 0.48 0.52 0.56 0.61 0.64 0.62 0.65 0.67 0.60 0.50 0.41 0.37 0.34 0.32 0.32 0.34 0.40 0.47 0.64
0.30 0.33 0.39 0.49 0.58 0.64 0.76 0.86 0.86 0.81 0.82 0.82 0.76 0.67 0.61 0.63 0.62 0.62 0.66 0.68 0.66 0.62 0.57 0.55 0.53 0.50 0.51 0.57 0.62 0.60 0.60 0.61 0.62 0.58 0.51 0.48 0.45 0.37 0.34 0.35 0.38 0.38 0.44
0.31 0.34 0.38 0.47 0.63 0.72 0.76 0.82 0.85 0.72 0.76 0.82 0.79 0.71 0.65 0.61 0.60 0.60 0.60 0.61 0.63 0.62 0.60 0.59 0.56 0.53 0.48 0.49 0.54 0.49 0.44 0.44 0.46 0.45 0.45 0.47 0.50 0.50 0.48 0.44 0.41 0.41 0.42
0.29 0.31 0.35 0.40 0.53 0.63 0.65 0.74 0.86 0.83 0.79 0.88 0.86 0.80 0.77 0.64 0.58 0.57 0.54 0.55 0.58 0.60 0.58 0.56 0.56 0.56 0.51 0.47 0.53 0.55 0.47 0.41 0.36 0.33 0.34 0.38 0.44 0.51 0.54 0.55 0.54 0.50 0.47
0.28 0.29 0.32 0.36 0.45 0.59 0.72 0.82 0.94 1.09 1.00 0.95 0.93 0.85 0.88 0.78 0.62 0.58 0.54 0.54 0.53 0.56 0.56 0.51 0.51 0.55 0.56 0.52 0.52 0.68 0.73 0.53 0.36 0.28 0.29 0.32 0.36 0.38 0.40 0.43 0.48 0.52 0.53
0.27 0.30 0.33 0.39 0.42 0.50 0.68 0.81 0.81 0.88 0.91 0.77 0.74 0.79 0.86 0.93 0.76 0.59 0.54 0.54 0.53 0.54 0.54 0.55 0.53 0.53 0.56 0.56 0.55 0.55 0.59 0.59 0.65 0.46 0.23 0.21 0.25 0.29 0.31 0.33 0.35 0.38 0.44
0.29 0.30 0.34 0.44 0.47 0.47 0.57 0.69 0.77 0.80 0.82 0.84 0.77 0.75 0.82 0.89 0.90 0.75 0.59 0.56 0.55 0.54 0.52 0.54 0.55 0.57 0.58 0.58 0.60 0.58 0.54 0.49 0.55 0.71 0.44 0.22 0.21 0.22 0.26 0.31 0.35 0.40 0.43
0.32 0.35 0.37 0.43 0.48 0.49 0.54 0.64 0.70 0.73 0.78 0.87 0.85 0.75 0.75 0.84 0.90 0.87 0.74 0.62 0.58 0.54 0.51 0.51 0.53 0.55 0.58 0.59 0.60 0.61 0.64 0.65 0.58 0.67 0.64 0.38 0.28 0.22 0.23 0.27 0.32 0.39 0.47

GEFSSE_prec_meanprecacc_300.txt.gz
Total_Precipitation_Accumulation
0.11 0.16 0.40 0.48 0.52 0.55 0.55 0.51 0.47 0.42 0.42 0.46 0.49 0.45 0.43 0.44 0.46 0.48 0.53 0.55 0.59 0.61 0.64 0.74 0.79 0.79 0.77 0.75 0.75 0.72 0.63 0.58 0.56 0.56 0.63 0.69 0.65 0.55 0.46 0.41 0.36 0.43 0.55
0.08 0.14 0.32 0.40 0.44 0.52 0.58 0.52 0.44 0.36 0.37 0.42 0.43 0.38 0.37 0.38 0.42 0.46 0.51 0.58 0.62 0.61 0.64 0.70 0.76 0.79 0.78 0.74 0.73 0.63 0.48 0.37 0.32 0.30 0.34 0.45 0.55 0.55 0.47 0.43 0.44 0.59 0.64
0.06 0.11 0.24 0.37 0.40 0.49 0.54 0.51 0.42 0.36 0.33 0.37 0.38 0.36 0.35 0.36 0.40 0.46 0.52 0.55 0.60 0.66 0.67 0.66 0.80 0.85 0.86 0.78 0.70 0.59 0.45 0.30 0.21 0.19 0.19 0.31 0.48 0.59 0.53 0.47 0.48 0.55 0.59
0.07 0.09 0.17 0.32 0.39 0.46 0.49 0.47 0.42 0.38 0.35 0.35 0.34 0.35 0.37 0.39 0.41 0.46 0.52 0.58 0.63 0.73 0.75 0.79 0.85 0.82 0.81 0.73 0.64 0.54 0.46 0.31 0.18 0.15 0.14 0.27 0.48 0.63 0.59 0.53 0.47 0.49 0.54
0.08 0.13 0.22 0.30 0.39 0.45 0.46 0.46 0.44 0.40 0.35 0.34 0.34 0.35 0.39 0.42 0.44 0.45 0.47 0.54 0.62 0.72 0.73 0.73 0.79 0.75 0.72 0.69 0.59 0.56 0.54 0.38 0.21 0.11 0.10 0.21 0.41 0.65 0.61 0.56 0.48 0.44 0.48
0.08 0.14 0.25 0.34 0.42 0.45 0.46 0.51 0.51 0.45 0.41 0.38 0.37 0.39 0.41 0.45 0.47 0.46 0.44 0.43 0.49 0.56 0.59 0.63 0.69 0.68 0.65 0.59 0.51 0.52 0.57 0.47 0.22 0.10 0.12 0.18 0.34 0.58 0.59 0.56 0.51 0.47 0.44
0.11 0.15 0.24 0.39 0.50 0.50 0.48 0.52 0.54 0.48 0.45 0.42 0.43 0.46 0.46 0.47 0.50 0.47 0.39 0.38 0.40 0.42 0.46 0.55 0.65 0.68 0.66 0.57 0.51 0.51 0.55 0.43 0.20 0.18 0.20 0.21 0.30 0.46 0.62 0.64 0.57 0.54 0.49
0.13 0.17 0.28 0.45 0.57 0.56 0.53 0.53 0.60 0.54 0.51 0.47 0.47 0.49 0.51 0.52 0.53 0.51 0.43 0.38 0.36 0.35 0.39 0.45 0.57 0.71 0.70 0.58 0.53 0.54 0.49 0.29 0.14 0.15 0.19 0.23 0.30 0.49 0.83 0.91 0.71 0.59 0.54
0.16 0.21 0.30 0.46 0.57 0.59 0.57 0.59 0.64 0.60 0.59 0.56 0.54 0.53 0.50 0.52 0.53 0.55 0.52 0.47 0.44 0.42 0.42 0.43 0.50 0.67 0.70 0.61 0.57 0.55 0.40 0.20 0.11 0.18 0.18 0.26 0.28 0.56 0.96 1.04 0.91 0.72 0.60
0.19 0.26 0.36 0.47 0.59 0.61 0.57 0.57 0.62 0.62 0.64 0.61 0.57 0.48 0.41 0.43 0.50 0.50 0.47 0.45 0.45 0.46 0.47 0.42 0.44 0.54 0.61 0.58 0.62 0.53 0.27 0.14 0.10 0.14 0.26 0.25 0.26 0.58 1.01 1.12 1.03 0.85 0.71
0.26 0.34 0.46 0.58 0.64 0.60 0.58 0.53 0.62 0.67 0.67 0.62 0.54 0.44 0.40 0.41 0.43 0.41 0.35 0.35 0.42 0.47 0.48 0.46 0.47 0.51 0.55 0.50 0.52 0.42 0.22 0.13 0.11 0.16 0.24 0.24 0.28 0.55 0.98 1.14 1.08 0.98 0.88
0.29 0.41 0.49 0.65 0.72 0.64 0.56 0.57 0.66 0.66 0.65 0.57 0.45 0.42 0.43 0.45 0.47 0.43 0.37 0.34 0.41 0.45 0.49 0.53 0.55 0.54 0.51 0.46 0.53 0.41 0.23 0.16 0.15 0.11 0.14 0.15 0.30 0.56 0.84 1.04 1.13 1.05 1.00
0.28 0.44 0.56 0.69 0.84 0.75 0.64 0.59 0.63 0.66 0.68 0.64 0.54 0.48 0.50 0.54 0.54 0.51 0.48 0.46 0.44 0.44 0.47 0.50 0.56 0.52 0.53 0.64 0.80 0.61 0.40 0.31 0.20 0.12 0.09 0.11 0.25 0.46 0.70 0.87 1.08 1.19 1.18
0.30 0.41 0.57 0.66 0.81 0.86 0.78 0.70 0.60 0.57 0.59 0.62 0.63 0.58 0.57 0.54 0.49 0.46 0.42 0.40 0.43 0.43 0.45 0.47 0.49 0.52 0.53 0.58 0.61 0.57 0.44 0.35 0.24 0.19 0.13 0.12 0.17 0.28 0.46 0.66 0.88 1.16 1.27
0.29 0.35 0.50 0.57 0.65 0.75 0.82 0.78 0.71 0.63 0.58 0.56 0.60 0.61 0.57 0.52 0.49 0.44 0.40 0.40 0.39 0.39 0.40 0.42 0.40 0.43 0.49 0.52 0.49 0.45 0.44 0.35 0.26 0.24 0.20 0.17 0.15 0.20 0.32 0.52 0.70 0.96 1.24
0.28 0.35 0.44 0.52 0.56 0.64 0.66 0.69 0.71 0.70 0.68 0.66 0.64 0.61 0.62 0.54 0.48 0.44 0.40 0.36 0.36 0.37 0.37 0.38 0.39 0.41 0.44 0.46 0.44 0.42 0.39 0.34 0.28 0.27 0.25 0.23 0.21 0.20 0.27 0.41 0.58 0.76 1.07
0.28 0.36 0.43 0.49 0.51 0.56 0.59 0.63 0.66 0.67 0.70 0.68 0.65 0.61 0.63 0.63 0.54 0.49 0.45 0.40 0.35 0.36 0.42 0.49 0.51 0.51 0.53 0.55 0.51 0.51 0.48 0.42 0.34 0.34 0.34 0.30 0.28 0.26 0.28 0.42 0.54 0.65 0.87
0.28 0.35 0.43 0.48 0.52 0.55 0.61 0.66 0.71 0.70 0.72 0.66 0.68 0.68 0.62 0.64 0.66 0.63 0.58 0.50 0.41 0.39 0.44 0.51 0.59 0.62 0.57 0.58 0.58 0.59 0.60 0.56 0.45 0.42 0.41 0.36 0.34 0.31 0.29 0.35 0.49 0.61 0.79
0.28 0.34 0.43 0.47 0.50 0.56 0.68 0.77 0.76 0.81 0.83 0.76 0.74 0.77 0.68 0.64 0.65 0.68 0.71 0.68 0.58 0.52 0.50 0.51 0.51 0.54 0.58 0.63 0.68 0.68 0.71 0.72 0.64 0.54 0.44 0.39 0.36 0.33 0.33 0.35 0.41 0.48 0.65
0.34 0.36 0.42 0.53 0.61 0.66 0.77 0.88 0.88 0.84 0.85 0.85 0.80 0.80 0.72 0.69 0.66 0.66 0.70 0.71 0.70 0.68 0.63 0.59 0.56 0.53 0.53 0.58 0.65 0.65 0.67 0.67 0.67 0.61 0.54 0.50 0.46 0.38 0.35 0.36 0.39 0.39 0.45
0.37 0.39 0.41 0.50 0.66 0.75 0.78 0.83 0.87 0.74 0.78 0.85 0.82 0.79 0.81 0.68 0.67 0.67 0.64 0.65 0.66 0.67 0.67 0.67 0.62 0.57 0.51 0.52 0.57 0.54 0.51 0.51 0.52 0.50 0.47 0.48 0.50 0.51 0.49 0.45 0.43 0.42 0.43
0.34 0.39 0.41 0.44 0.57 0.67 0.68 0.75 0.88 0.85 0.82 0.92 0.90 0.84 0.91 0.76 0.64 0.64 0.64 0.63 0.64 0.64 0.62 0.62 0.63 0.62 0.54 0.50 0.56 0.58 0.52 0.47 0.43 0.38 0.37 0.40 0.45 0.52 0.54 0.56 0.55 0.52 0.48
0.32 0.33 0.37 0.42 0.50 0.62 0.75 0.84 0.95 1.11 1.03 0.98 0.96 0.89 0.96 0.95 0.72 0.62 0.61 0.64 0.64 0.64 0.61 0.55 0.56 0.61 0.60 0.55 0.55 0.70 0.75 0.56 0.41 0.33 0.33 0.35 0.38 0.39 0.41 0.45 0.49 0.53 0.55
0.32 0.33 0.36 0.43 0.46 0.54 0.72 0.84 0.83 0.90 0.93 0.79 0.76 0.83 0.91 1.05 0.92 0.67 0.60 0.61 0.60 0.60 0.59 0.59 0.56 0.57 0.60 0.60 0.58 0.57 0.61 0.61 0.67 0.49 0.27 0.25 0.28 0.31 0.33 0.35 0.37 0.40 0.46
0.36 0.35 0.38 0.48 0.51 0.51 0.61 0.74 0.80 0.82 0.83 0.86 0.79 0.77 0.86 0.96 1.02 0.90 0.68 0.64 0.63 0.61 0.58 0.59 0.60 0.61 0.61 0.60 0.62 0.60 0.57 0.52 0.58 0.75 0.48 0.26 0.25 0.25 0.29 0.33 0.38 0.42 0.45
0.44 0.42 0.41 0.47 0.51 0.52 0.58 0.69 0.75 0.77 0.81 0.90 0.89 0.77 0.77 0.88 0.97 1.00 0.88 0.71 0.67 0.63 0.59 0.58 0.58 0.60 0.62 0.62 0.63 0.63 0.67 0.69 0.62 0.71 0.67 0.41 0.31 0.25 0.26 0.29 0.34 0.41 0.49

GEFSSE_prec_meanprecacc_306.txt.gz
Total_Precipitation_Accumulation
0.13 0.16 0.40 0.49 0.53 0.57 0.57 0.53 0.48 0.44 0.44 0.48 0.52 0.49 0.45 0.46 0.48 0.50 0.55 0.58 0.63 0.64 0.66 0.77 0.82 0.82 0.81 0.77 0.77 0.74 0.67 0.61 0.58 0.57 0.64 0.70 0.65 0.56 0.47 0.42 0.37 0.44 0.57
0.09 0.14 0.32 0.41 0.45 0.54 0.59 0.54 0.45 0.38 0.38 0.44 0.45 0.41 0.39 0.41 0.45 0.48 0.54 0.62 0.65 0.63 0.66 0.73 0.80 0.83 0.81 0.76 0.76 0.65 0.49 0.38 0.33 0.31 0.35 0.46 0.55 0.56 0.48 0.44 0.45 0.61 0.66
0.08 0.13 0.25 0.38 0.41 0.50 0.55 0.52 0.43 0.37 0.35 0.39 0.39 0.38 0.37 0.39 0.44 0.51 0.56 0.60 0.63 0.68 0.68 0.69 0.83 0.89 0.89 0.81 0.73 0.61 0.46 0.31 0.21 0.20 0.20 0.32 0.49 0.61 0.55 0.48 0.50 0.57 0.61
0.09 0.12 0.19 0.34 0.41 0.48 0.50 0.48 0.43 0.39 0.35 0.36 0.35 0.36 0.39 0.42 0.43 0.49 0.56 0.62 0.66 0.75 0.77 0.81 0.88 0.86 0.84 0.76 0.67 0.56 0.48 0.32 0.19 0.16 0.15 0.28 0.48 0.65 0.61 0.54 0.49 0.51 0.55
0.11 0.17 0.25 0.32 0.41 0.47 0.48 0.46 0.46 0.41 0.36 0.35 0.35 0.36 0.40 0.44 0.46 0.48 0.50 0.58 0.64 0.74 0.74 0.75 0.81 0.78 0.74 0.72 0.62 0.58 0.55 0.39 0.22 0.12 0.12 0.22 0.42 0.67 0.62 0.57 0.49 0.46 0.49
0.11 0.17 0.28 0.37 0.44 0.47 0.48 0.52 0.53 0.46 0.42 0.39 0.39 0.40 0.43 0.47 0.49 0.48 0.47 0.46 0.51 0.57 0.61 0.65 0.71 0.71 0.67 0.62 0.54 0.54 0.59 0.49 0.24 0.12 0.15 0.20 0.35 0.60 0.60 0.58 0.52 0.49 0.46
0.13 0.17 0.27 0.42 0.53 0.53 0.51 0.54 0.55 0.49 0.45 0.43 0.45 0.48 0.48 0.49 0.52 0.49 0.42 0.40 0.42 0.44 0.47 0.56 0.67 0.70 0.68 0.60 0.54 0.54 0.59 0.46 0.21 0.20 0.22 0.23 0.32 0.48 0.63 0.65 0.59 0.55 0.50
0.14 0.19 0.30 0.47 0.61 0.60 0.57 0.55 0.61 0.55 0.52 0.49 0.50 0.52 0.53 0.54 0.55 0.53 0.45 0.40 0.39 0.38 0.41 0.46 0.58 0.73 0.72 0.60 0.56 0.57 0.54 0.34 0.17 0.17 0.21 0.25 0.32 0.51 0.85 0.93 0.72 0.60 0.55
0.17 0.22 0.32 0.48 0.66 0.68 0.61 0.60 0.65 0.62 0.61 0.59 0.57 0.56 0.53 0.54 0.55 0.57 0.54 0.49 0.47 0.44 0.43 0.44 0.51 0.68 0.71 0.63 0.59 0.59 0.43 0.25 0.15 0.20 0.19 0.28 0.30 0.58 0.97 1.05 0.91 0.73 0.61
0.20 0.28 0.39 0.50 0.74 0.81 0.64 0.59 0.64 0.64 0.66 0.64 0.60 0.52 0.44 0.46 0.51 0.51 0.48 0.47 0.47 0.48 0.48 0.43 0.45 0.55 0.62 0.60 0.64 0.55 0.30 0.16 0.12 0.16 0.27 0.27 0.27 0.59 1.02 1.13 1.04 0.86 0.71
0.28 0.37 0.50 0.63 0.77 0.80 0.67 0.56 0.64 0.68 0.69 0.65 0.57 0.47 0.43 0.44 0.45 0.42 0.36 0.37 0.43 0.48 0.48 0.47 0.47 0.51 0.56 0.51 0.53 0.43 0.24 0.16 0.13 0.17 0.25 0.25 0.29 0.56 0.99 1.16 1.09 0.99 0.88
0.31 0.43 0.52 0.69 0.80 0.73 0.63 0.61 0.69 0.68 0.68 0.61 0.49 0.46 0.47 0.50 0.51 0.45 0.38 0.35 0.42 0.46 0.50 0.54 0.56 0.54 0.51 0.47 0.54 0.43 0.25 0.19 0.19 0.13 0.15 0.16 0.31 0.57 0.85 1.05 1.13 1.06 1.00
0.32 0.47 0.59 0.74 0.91 0.81 0.68 0.62 0.66 0.69 0.70 0.68 0.58 0.53 0.56 0.60 0.58 0.54 0.49 0.47 0.45 0.44 0.47 0.51 0.57 0.52 0.53 0.65 0.81 0.62 0.42 0.34 0.23 0.16 0.11 0.12 0.26 0.47 0.71 0.88 1.08 1.20 1.19
0.34 0.44 0.61 0.70 0.88 0.93 0.83 0.74 0.63 0.60 0.62 0.65 0.68 0.64 0.63 0.58 0.52 0.49 0.44 0.42 0.44 0.44 0.45 0.47 0.50 0.53 0.54 0.58 0.62 0.59 0.46 0.38 0.28 0.22 0.16 0.14 0.18 0.29 0.47 0.66 0.89 1.17 1.28
0.32 0.39 0.54 0.62 0.73 0.85 0.91 0.85 0.76 0.66 0.60 0.59 0.65 0.68 0.63 0.55 0.50 0.46 0.42 0.42 0.40 0.40 0.41 0.42 0.41 0.43 0.49 0.53 0.50 0.46 0.46 0.39 0.31 0.28 0.24 0.20 0.17 0.21 0.33 0.53 0.71 0.97 1.25
0.31 0.38 0.47 0.56 0.62 0.72 0.74 0.77 0.78 0.75 0.71 0.68 0.66 0.67 0.70 0.58 0.50 0.46 0.42 0.39 0.38 0.39 0.38 0.39 0.40 0.42 0.45 0.47 0.45 0.43 0.40 0.37 0.33 0.32 0.30 0.27 0.22 0.21 0.28 0.42 0.58 0.76 1.08
0.31 0.40 0.46 0.53 0.56 0.60 0.63 0.67 0.70 0.70 0.72 0.70 0.67 0.66 0.70 0.70 0.57 0.51 0.48 0.43 0.38 0.38 0.43 0.50 0.51 0.52 0.54 0.56 0.52 0.53 0.50 0.44 0.38 0.40 0.41 0.36 0.31 0.28 0.29 0.42 0.54 0.66 0.88
0.31 0.39 0.48 0.52 0.57 0.60 0.65 0.70 0.74 0.73 0.74 0.68 0.69 0.72 0.69 0.72 0.71 0.65 0.61 0.53 0.45 0.44 0.48 0.54 0.61 0.63 0.58 0.60 0.60 0.61 0.61 0.58 0.48 0.46 0.47 0.43 0.39 0.34 0.30 0.36 0.50 0.62 0.79
0.32 0.37 0.48 0.54 0.56 0.61 0.73 0.80 0.79 0.84 0.85 0.78 0.76 0.80 0.73 0.71 0.71 0.71 0.73 0.70 0.61 0.57 0.55 0.55 0.53 0.57 0.60 0.65 0.70 0.71 0.73 0.74 0.66 0.56 0.48 0.43 0.40 0.36 0.35 0.36 0.41 0.48 0.65
0.39 0.39 0.46 0.59 0.69 0.74 0.84 0.93 0.93 0.88 0.88 0.88 0.82 0.82 0.76 0.74 0.71 0.69 0.72 0.73 0.72 0.71 0.66 0.63 0.59 0.57 0.56 0.61 0.68 0.68 0.70 0.70 0.70 0.64 0.56 0.53 0.49 0.41 0.38 0.38 0.41 0.41 0.45
0.42 0.43 0.44 0.54 0.72 0.84 0.87 0.90 0.92 0.78 0.81 0.87 0.85 0.81 0.83 0.72 0.70 0.69 0.67 0.67 0.68 0.69 0.69 0.69 0.65 0.59 0.54 0.55 0.60 0.57 0.54 0.55 0.56 0.54 0.50 0.50 0.52 0.53 0.52 0.48 0.45 0.44 0.44
0.38 0.43 0.44 0.47 0.60 0.73 0.76 0.82 0.94 0.89 0.84 0.93 0.91 0.86 0.93 0.79 0.65 0.66 0.66 0.66 0.67 0.67 0.66 0.65 0.66 0.64 0.58 0.54 0.60 0.63 0.56 0.52 0.47 0.42 0.41 0.43 0.47 0.54 0.56 0.57 0.57 0.53 0.50
0.36 0.36 0.41 0.45 0.54 0.68 0.82 0.92 1.04 1.20 1.09 1.01 0.98 0.91 0.98 0.98 0.74 0.63 0.62 0.66 0.66 0.68 0.66 0.60 0.59 0.64 0.63 0.59 0.59 0.76 0.81 0.61 0.45 0.37 0.38 0.39 0.41 0.42 0.43 0.46 0.51 0.55 0.56
0.36 0.36 0.38 0.46 0.51 0.60 0.79 0.91 0.90 0.98 1.01 0.83 0.78 0.84 0.92 1.07 0.95 0.68 0.61 0.62 0.61 0.63 0.65 0.66 0.62 0.62 0.65 0.64 0.61 0.61 0.65 0.64 0.71 0.53 0.31 0.29 0.32 0.35 0.36 0.37 0.39 0.41 0.47
0.41 0.41 0.41 0.50 0.55 0.56 0.67 0.80 0.87 0.88 0.91 0.92 0.83 0.79 0.87 0.98 1.04 0.92 0.69 0.65 0.64 0.62 0.60 0.62 0.65 0.68 0.66 0.65 0.66 0.64 0.60 0.56 0.62 0.79 0.53 0.30 0.29 0.29 0.32 0.36 0.39 0.43 0.46
0.47 0.48 0.47 0.50 0.56 0.58 0.64 0.75 0.81 0.83 0.87 0.97 0.94 0.81 0.79 0.90 0.99 1.02 0.91 0.74 0.69 0.64 0.60 0.60 0.63 0.65 0.67 0.68 0.69 0.69 0.73 0.74 0.67 0.75 0.70 0.43 0.34 0.28 0.29 0.32 0.36 0.42 0.50

GEFSSE_prec_meanprecacc_312.txt.gz
Total_Precipitation_Accumulation
0.15 0.17 0.41 0.50 0.54 0.59 0.58 0.55 0.49 0.45 0.46 0.50 0.53 0.50 0.46 0.47 0.50 0.52 0.56 0.59 0.64 0.66 0.68 0.79 0.85 0.85 0.83 0.80 0.80 0.77 0.69 0.64 0.61 0.59 0.66 0.71 0.67 0.57 0.49 0.44 0.39 0.46 0.59
0.10 0.16 0.34 0.42 0.46 0.56 0.61 0.55 0.46 0.39 0.39 0.45 0.46 0.42 0.40 0.42 0.46 0.50 0.56 0.64 0.67 0.65 0.68 0.75 0.83 0.86 0.84 0.80 0.78 0.67 0.51 0.39 0.35 0.33 0.36 0.47 0.57 0.57 0.49 0.45 0.46 0.63 0.68
0.09 0.15 0.26 0.39 0.42 0.52 0.56 0.52 0.44 0.38 0.35 0.40 0.40 0.39 0.38 0.41 0.47 0.54 0.59 0.63 0.65 0.69 0.70 0.70 0.85 0.92 0.92 0.85 0.78 0.64 0.49 0.33 0.24 0.22 0.22 0.33 0.50 0.62 0.56 0.50 0.52 0.60 0.63
0.11 0.14 0.20 0.35 0.42 0.49 0.52 0.48 0.44 0.40 0.37 0.37 0.36 0.37 0.39 0.43 0.46 0.52 0.60 0.66 0.67 0.76 0.78 0.82 0.90 0.87 0.86 0.78 0.70 0.60 0.51 0.35 0.22 0.17 0.17 0.29 0.50 0.67 0.63 0.56 0.50 0.53 0.57
0.13 0.18 0.27 0.35 0.43 0.48 0.49 0.47 0.46 0.42 0.37 0.36 0.36 0.37 0.41 0.45 0.47 0.50 0.52 0.60 0.66 0.75 0.75 0.76 0.83 0.79 0.76 0.73 0.64 0.61 0.59 0.41 0.23 0.13 0.13 0.23 0.43 0.70 0.64 0.59 0.51 0.48 0.51
0.13 0.19 0.30 0.40 0.46 0.49 0.49 0.53 0.53 0.47 0.43 0.40 0.40 0.41 0.44 0.48 0.50 0.50 0.48 0.47 0.53 0.59 0.61 0.65 0.71 0.71 0.68 0.63 0.55 0.57 0.62 0.51 0.25 0.13 0.16 0.21 0.36 0.62 0.62 0.59 0.54 0.52 0.47
0.16 0.19 0.30 0.45 0.54 0.55 0.53 0.55 0.56 0.50 0.47 0.44 0.46 0.49 0.49 0.50 0.53 0.50 0.43 0.41 0.44 0.45 0.48 0.57 0.67 0.70 0.68 0.61 0.55 0.57 0.62 0.49 0.24 0.21 0.23 0.24 0.33 0.50 0.65 0.67 0.61 0.57 0.51
0.16 0.21 0.33 0.50 0.63 0.62 0.59 0.57 0.63 0.57 0.54 0.50 0.51 0.53 0.55 0.55 0.56 0.54 0.46 0.41 0.41 0.40 0.42 0.47 0.58 0.74 0.73 0.61 0.56 0.59 0.56 0.36 0.19 0.19 0.23 0.27 0.34 0.55 0.88 0.95 0.74 0.61 0.56
0.18 0.24 0.33 0.50 0.68 0.71 0.64 0.63 0.67 0.64 0.64 0.60 0.58 0.57 0.54 0.55 0.56 0.59 0.56 0.50 0.48 0.46 0.44 0.45 0.52 0.69 0.72 0.64 0.60 0.60 0.45 0.27 0.18 0.22 0.21 0.30 0.32 0.62 1.00 1.07 0.92 0.74 0.62
0.23 0.30 0.41 0.52 0.78 0.87 0.68 0.62 0.67 0.66 0.68 0.65 0.62 0.54 0.45 0.47 0.53 0.53 0.50 0.49 0.48 0.49 0.48 0.44 0.45 0.55 0.62 0.60 0.65 0.56 0.31 0.18 0.14 0.19 0.29 0.28 0.30 0.63 1.05 1.14 1.05 0.87 0.72
0.33 0.41 0.53 0.66 0.82 0.89 0.74 0.62 0.70 0.71 0.70 0.66 0.57 0.48 0.44 0.45 0.45 0.43 0.37 0.38 0.44 0.49 0.49 0.48 0.48 0.52 0.56 0.51 0.54 0.44 0.25 0.16 0.14 0.20 0.30 0.28 0.32 0.60 1.02 1.17 1.10 1.00 0.89
0.37 0.50 0.57 0.73 0.83 0.80 0.72 0.68 0.73 0.71 0.69 0.62 0.49 0.47 0.51 0.52 0.51 0.46 0.39 0.36 0.42 0.47 0.51 0.54 0.56 0.55 0.51 0.47 0.55 0.43 0.26 0.20 0.20 0.15 0.20 0.23 0.36 0.61 0.89 1.07 1.15 1.08 1.01
0.38 0.54 0.67 0.79 0.94 0.85 0.75 0.70 0.73 0.73 0.72 0.69 0.59 0.54 0.59 0.62 0.59 0.55 0.50 0.47 0.45 0.44 0.48 0.51 0.57 0.53 0.53 0.65 0.82 0.62 0.42 0.34 0.24 0.18 0.14 0.18 0.33 0.53 0.75 0.90 1.10 1.22 1.20
0.41 0.51 0.68 0.77 0.94 0.97 0.86 0.79 0.69 0.64 0.65 0.67 0.69 0.66 0.68 0.62 0.54 0.50 0.45 0.42 0.44 0.44 0.46 0.47 0.50 0.53 0.54 0.59 0.62 0.59 0.47 0.38 0.28 0.23 0.20 0.18 0.23 0.36 0.51 0.69 0.90 1.18 1.29
0.39 0.46 0.61 0.69 0.79 0.90 0.94 0.88 0.79 0.69 0.62 0.61 0.66 0.70 0.69 0.62 0.54 0.48 0.44 0.43 0.41 0.40 0.41 0.43 0.41 0.44 0.49 0.53 0.50 0.47 0.46 0.39 0.31 0.29 0.27 0.27 0.24 0.27 0.37 0.56 0.72 0.97 1.26
0.38 0.45 0.55 0.64 0.69 0.79 0.79 0.81 0.81 0.78 0.74 0.71 0.69 0.69 0.75 0.67 0.56 0.51 0.45 0.41 0.40 0.39 0.38 0.39 0.40 0.42 0.45 0.47 0.45 0.43 0.41 0.37 0.33 0.33 0.32 0.33 0.32 0.32 0.35 0.45 0.60 0.78 1.09
0.38 0.47 0.54 0.60 0.64 0.69 0.70 0.72 0.74 0.73 0.75 0.73 0.70 0.68 0.74 0.81 0.66 0.58 0.52 0.46 0.41 0.40 0.44 0.51 0.52 0.52 0.54 0.56 0.53 0.53 0.50 0.44 0.39 0.41 0.43 0.42 0.40 0.38 0.40 0.49 0.57 0.67 0.88
0.39 0.45 0.54 0.59 0.64 0.67 0.73 0.76 0.79 0.76 0.77 0.70 0.72 0.74 0.71 0.80 0.82 0.75 0.66 0.57 0.48 0.47 0.51 0.55 0.61 0.64 0.59 0.60 0.60 0.61 0.62 0.58 0.48 0.47 0.50 0.49 0.49 0.43 0.40 0.44 0.53 0.63 0.80
0.39 0.43 0.54 0.61 0.63 0.70 0.82 0.89 0.86 0.88 0.89 0.81 0.79 0.83 0.76 0.76 0.78 0.79 0.79 0.74 0.65 0.60 0.58 0.59 0.56 0.58 0.61 0.66 0.71 0.72 0.74 0.75 0.67 0.57 0.50 0.47 0.50 0.49 0.44 0.41 0.44 0.51 0.68
0.46 0.46 0.51 0.65 0.76 0.84 0.96 1.03 1.03 0.94 0.93 0.92 0.86 0.86 0.80 0.78 0.75 0.73 0.75 0.76 0.76 0.74 0.69 0.65 0.63 0.60 0.58 0.63 0.69 0.69 0.71 0.72 0.72 0.66 0.58 0.55 0.54 0.49 0.43 0.41 0.44 0.44 0.48
0.50 0.51 0.51 0.59 0.77 0.90 0.98 1.01 1.01 0.87 0.87 0.91 0.88 0.86 0.88 0.77 0.74 0.73 0.69 0.69 0.70 0.71 0.72 0.72 0.68 0.63 0.57 0.58 0.63 0.59 0.56 0.57 0.58 0.56 0.53 0.52 0.55 0.57 0.56 0.52 0.49 0.47 0.47
0.47 0.53 0.53 0.53 0.64 0.77 0.82 0.93 1.05 1.00 0.94 1.00 0.97 0.91 0.98 0.85 0.71 0.70 0.70 0.68 0.69 0.69 0.68 0.68 0.70 0.67 0.61 0.58 0.64 0.66 0.60 0.56 0.51 0.46 0.44 0.45 0.50 0.57 0.60 0.61 0.61 0.56 0.52
0.48 0.49 0.51 0.52 0.58 0.71 0.85 0.99 1.13 1.30 1.20 1.11 1.05 0.96 1.03 1.03 0.80 0.68 0.67 0.70 0.70 0.71 0.69 0.63 0.63 0.68 0.67 0.62 0.63 0.80 0.85 0.65 0.50 0.42 0.42 0.42 0.43 0.44 0.46 0.49 0.54 0.57 0.58
0.50 0.49 0.48 0.51 0.57 0.66 0.84 0.96 0.98 1.07 1.09 0.92 0.86 0.91 0.99 1.13 1.00 0.73 0.64 0.65 0.65 0.68 0.69 0.69 0.66 0.67 0.69 0.68 0.66 0.66 0.69 0.68 0.74 0.57 0.36 0.33 0.35 0.38 0.39 0.40 0.42 0.44 0.48
0.53 0.51 0.49 0.53 0.57 0.62 0.78 0.91 0.97 0.98 1.00 1.00 0.91 0.87 0.94 1.04 1.09 0.96 0.74 0.68 0.67 0.66 0.64 0.66 0.69 0.71 0.70 0.68 0.70 0.68 0.65 0.60 0.65 0.82 0.56 0.34 0.32 0.33 0.36 0.40 0.43 0.46 0.47
0.57 0.56 0.53 0.53 0.57 0.59 0.67 0.82 0.92 0.95 1.01 1.08 1.03 0.89 0.86 0.97 1.05 1.06 0.94 0.77 0.72 0.67 0.63 0.64 0.66 0.68 0.70 0.71 0.72 0.72 0.75 0.78 0.71 0.78 0.73 0.46 0.38 0.33 0.35 0.38 0.41 0.46 0.52